Location: Alphen aan den Rijn
(52.1277°N, 4.6689°E)
Time: 15:04:25
(UTC+02:00)

ISS - Pass Details

Date: 30 September 2017
Orbit: 401 x 408 km, 51.6° (Epoch: 19 October)

Event Time Altitude Azimuth Distance (km) Brightness Sun altitude
Rises 21:42:59 0° 258° (WSW) 2,326 0.9 -22.1°
Reaches altitude 10° 21:45:04 10° 257° (WSW) 1,468 -0.3 -22.4°
Enters shadow 21:47:15 38° 251° (WSW) 635 -2.6 -22.7°
